IU5NOC-10 Weather Reports


Display with metric or nautical units.
time (UTC)temp
F
wind
direction
speed
MPH
gust
MPH
rain 1hr
in
rain 24hr
in
rain mn
in
humidity
%
barometer
mb
20260906104932 96 195 2.0 4.0 0.00 0.00 0.00 3 996.6
20260906103431 89 83 2.0 3.0 0.00 0.00 0.00 4 996.8
20260906101931 93 293 3.0 4.0 0.00 0.00 0.00 3 996.8
20260906100432 92 35 0.0 4.0 0.00 0.00 0.00 4 996.8
20260906094931 91 33 2.0 3.0 0.00 0.00 0.00 3 996.7
20260906093431 87 7 0.0 1.0 0.00 0.00 0.00 4 996.9
20260906091931 91 28 0.0 2.0 0.00 0.00 0.00 4 997.1
20260906090432 86 58 1.0 4.0 0.00 0.00 0.00 4 997.1
20260906084931 86 103 0.0 2.0 0.00 0.00 0.00 4 997.0
20260906083431 87 56 3.0 4.0 0.00 0.00 0.00 5 997.1
20260906081932 89 21 1.0 2.0 0.00 0.00 0.00 4 996.9
20260906080432 83 11 0.0 3.0 0.00 0.00 0.00 5 996.9
20260906074931 84 35 0.0 0.0 0.00 0.00 0.00 5 996.8
20260906073431 86 18 0.0 1.0 0.00 0.00 0.00 5 996.7
20260906071932 79 36 0.0 1.0 0.00 0.00 0.00 6 996.8
20260906070432 80 36 0.0 0.0 0.00 0.00 0.00 5 996.6
20260906064931 82 41 0.0 1.0 0.00 0.00 0.00 5 996.5
20260906063431 76 39 0.0 0.0 0.00 0.00 0.00 6 996.4
20260906061932 76 24 0.0 0.0 0.00 0.00 0.00 6 996.4
20260906060432 75 42 0.0 0.0 0.00 0.00 0.00 6 996.6
20260906054931 71 38 0.0 0.0 0.00 0.00 0.00 7 996.4
20260906053431 70 36 0.0 0.0 0.00 0.00 0.00 7 996.6
20260906051932 66 15 0.0 0.0 0.00 0.00 0.00 8 996.1
20260906050432 65 14 0.0 0.0 0.00 0.00 0.00 8 996.3
20260906044932 64 14 0.0 0.0 0.00 0.00 0.00 8 996.3
20260906043431 64 358 1.0 1.0 0.00 0.00 0.00 8 996.3
20260906041932 64 20 0.0 0.0 0.00 0.00 0.00 8 996.2
20260906040432 64 359 0.0 0.0 0.00 0.00 0.00 8 996.0
20260906034931 65 10 0.0 0.0 0.00 0.00 0.00 8 996.0
20260906033431 66 8 0.0 0.0 0.00 0.00 0.00 8 995.8
20260906031932 67 20 0.0 0.0 0.00 0.00 0.00 8 995.6
20260906030432 68 209 3.0 4.0 0.00 0.00 0.00 8 995.8
20260906024931 68 141 2.0 3.0 0.00 0.00 0.00 7 995.8
20260906023431 66 12 0.0 0.0 0.00 0.00 0.00 8 995.7
20260906021932 68 319 1.0 2.0 0.00 0.00 0.00 7 995.7
20260906020432 67 350 0.0 1.0 0.00 0.00 0.00 8 995.8
20260906014931 67 1 0.0 1.0 0.00 0.00 0.00 8 995.8
20260906013431 67 5 0.0 1.0 0.00 0.00 0.00 8 995.8
20260906011932 67 4 0.0 0.0 0.00 0.00 0.00 8 995.7
20260906010432 68 8 0.0 0.0 0.00 0.00 0.00 8 995.8
20260906004931 69 211 2.0 3.0 0.00 0.00 0.00 7 995.8
20260906003431 68 17 0.0 0.0 0.00 0.00 0.00 8 995.7
20260906001932 69 93 1.0 2.0 0.00 0.00 0.00 8 995.9
20260906000433 69 2 1.0 2.0 0.00 0.00 0.00 8 995.9
20260905234931 69 280 2.0 4.0 0.00 0.00 0.00 8 995.6
20260905233431 69 240 2.0 2.0 0.00 0.00 0.00 7 995.7
20260905231932 69 20 0.0 0.0 0.00 0.00 0.00 7 995.8
20260905230432 70 344 1.0 2.0 0.00 0.00 0.00 7 996.0
20260905224932 71 19 0.0 0.0 0.00 0.00 0.00 7 996.0
20260905223431 70 264 1.0 3.0 0.00 0.00 0.00 7 995.7
20260905221932 72 275 1.0 2.0 0.00 0.00 0.00 7 995.7
20260905220432 72 206 2.0 4.0 0.00 0.00 0.00 7 995.8
20260905214931 72 162 2.0 3.0 0.00 0.00 0.00 7 995.6
20260905213431 72 80 0.0 2.0 0.00 0.00 0.00 7 995.6
20260905211932 72 15 0.0 0.0 0.00 0.00 0.00 7 995.6
20260905210431 74 24 0.0 0.0 0.00 0.00 0.00 6 995.2
20260905204931 75 313 1.0 2.0 0.00 0.00 0.00 6 995.3
20260905203431 73 19 0.0 2.0 0.00 0.00 0.00 7 995.5
20260905201932 74 15 0.0 1.0 0.00 0.00 0.00 7 995.6
20260905200431 75 32 0.0 1.0 0.00 0.00 0.00 6 995.2
20260905194931 76 317 2.0 4.0 0.00 0.00 0.00 6 995.3
20260905193431 77 242 2.0 3.0 0.00 0.00 0.00 6 995.0
20260905191932 77 85 2.0 3.0 0.00 0.00 0.00 6 995.0
20260905190431 77 243 3.0 5.0 0.00 0.00 0.00 6 994.7
20260905184931 78 228 2.0 5.0 0.00 0.00 0.00 6 994.5
20260905183431 79 264 2.0 8.0 0.00 0.00 0.00 5 994.5
20260905181932 80 225 3.0 5.0 0.00 0.00 0.00 6 994.2
20260905180431 80 265 1.0 2.0 0.00 0.00 0.00 6 994.3
20260905174931 81 349 0.0 1.0 0.00 0.00 0.00 6 994.1
20260905173431 82 29 0.0 1.0 0.00 0.00 0.00 5 994.1
20260905171932 84 34 0.0 3.0 0.00 0.00 0.00 5 993.8
20260905170431 85 16 1.0 2.0 0.00 0.00 0.00 5 994.1
20260905164931 86 29 1.0 3.0 0.00 0.00 0.00 5 993.7
20260905163431 88 341 0.0 5.0 0.00 0.00 0.00 4 993.5
20260905161932 88 317 2.0 4.0 0.00 0.00 0.00 4 993.7
20260905160432 89 43 3.0 5.0 0.00 0.00 0.00 4 993.6
20260905154931 90 296 4.0 5.0 0.00 0.00 0.00 4 993.4
20260905153431 91 345 0.0 5.0 0.00 0.00 0.00 4 993.2
20260905151932 91 324 2.0 6.0 0.00 0.00 0.00 4 993.5
20260905150432 89 284 3.0 8.0 0.00 0.00 0.00 4 993.2
20260905144931 92 344 5.0 12.0 0.00 0.00 0.00 4 993.2
20260905143431 93 285 2.0 3.0 0.00 0.00 0.00 4 993.4
20260905141932 94 291 4.0 9.0 0.00 0.00 0.00 4 993.7
20260905140431 93 331 0.0 3.0 0.00 0.00 0.00 4 993.8
20260905134931 93 20 1.0 2.0 0.00 0.00 0.00 4 993.8
20260905133431 94 317 4.0 6.0 0.00 0.00 0.00 4 994.0
20260905131932 95 244 4.0 9.0 0.00 0.00 0.00 4 993.9
20260905130431 95 346 0.0 5.0 0.00 0.00 0.00 3 994.2
20260905124931 91 313 1.0 3.0 0.00 0.00 0.00 4 994.3
20260905123431 95 6 3.0 10.0 0.00 0.00 0.00 3 994.5
20260905121932 95 358 2.0 5.0 0.00 0.00 0.00 3 994.6
20260905120432 96 316 1.0 4.0 0.00 0.00 0.00 3 994.6
20260905114931 93 352 3.0 4.0 0.00 0.00 0.00 3 994.7
20260905113431 94 324 6.0 10.0 0.00 0.00 0.00 3 995.0
20260905111932 94 251 3.0 10.0 0.00 0.00 0.00 3 995.0
20260905110431 92 268 3.0 8.0 0.00 0.00 0.00 3 994.8